Location: Unnamed
(51.5169°N, 0.1311°W)
Time: 06:48:03
(UTC+01:00)

Vanguard 1 - Pass Details

Date: 17 August 2024
Orbit: 649 x 3825 km, 34.2° (Epoch: 16 September)

Event Time Altitude Azimuth Distance (km) Brightness Sun altitude
Exits shadow 03:52:45 17° 239° (WSW) 4,741 12.9 -15.7°
Maximum altitude 03:59:48 23° 208° (SSW) 4,909 13.0 -14.9°
Drops below altitude 10° 04:13:45 10° 167° (SSE) 6,721 14.0 -13.4°
Sets 04:21:16 0° 155° (SSE) 7,934 14.5 -12.5°
